This is the latest recevied weather packets stored in our database for station/object EA1L-13. If no packets are shown the sender has not sent any weather packets the latest 10 day(s).
| Time | Temp. | Humidity | Pressure | Rain* | Wind** | Luminosity | Snow |
|---|---|---|---|---|---|---|---|
| 1777791604 | 14.44° C | 100% | 1010.8 hPa | 0 mm | - | - | - |
| 1777790704 | 13.33° C | 100% | 1010.7 hPa | 0.25 mm | - | - | - |
| 1777789805 | 13.33° C | 100% | 1010.5 hPa | 0.25 mm | - | - | - |
| 1777788904 | 13.33° C | 100% | 1010.4 hPa | 0.25 mm | - | - | - |
| 1777788004 | 13.33° C | 100% | 1010.5 hPa | 0.25 mm | - | - | - |
| 1777787105 | 12.78° C | 100% | 1010.7 hPa | 0 mm | - | - | - |
| 1777786205 | 12.22° C | 100% | 1010.7 hPa | 0 mm | - | - | - |
| 1777785304 | 12.22° C | 100% | 1010.6 hPa | 0 mm | - | - | - |
| 1777784404 | 12.22° C | 100% | 1010.7 hPa | 0 mm | - | - | - |
| 1777783504 | 12.78° C | 100% | 1010.7 hPa | 0 mm | - | - | - |
| 1777782604 | 12.22° C | 100% | 1010.6 hPa | 0 mm | - | - | - |
| 1777781704 | 12.22° C | 100% | 1010.5 hPa | 0 mm | - | - | - |
| 1777780804 | 12.22° C | 100% | 1010.7 hPa | 0 mm | - | - | - |
| 1777779904 | 12.22° C | 100% | 1010.7 hPa | 0 mm | - | - | - |
| 1777779005 | 12.22° C | 100% | 1010.6 hPa | 0 mm | - | - | - |
| 1777778104 | 12.78° C | 100% | 1010.7 hPa | 0 mm | - | - | - |
| 1777777204 | 12.78° C | 100% | 1010.7 hPa | 0 mm | - | - | - |
| 1777776305 | 12.78° C | 100% | 1010.7 hPa | 0 mm | - | - | - |
| 1777775404 | 12.22° C | 100% | 1010.9 hPa | 0 mm | - | - | - |
| 1777774505 | 13.33° C | 100% | 1010.8 hPa | 0 mm | - | - | - |
| 1777773605 | 13.33° C | 100% | 1010.9 hPa | 0 mm | - | - | - |
| 1777772704 | 13.33° C | 100% | 1011.2 hPa | 0 mm | - | - | - |
| 1777771805 | 13.33° C | 100% | 1011.4 hPa | 0 mm | - | - | - |
| 1777770904 | 13.33° C | 100% | 1011.3 hPa | 0 mm | - | - | - |
| 1777770004 | 13.33° C | 100% | 1011.5 hPa | 0 mm | - | - | - |
* Rain latest hour (hover to see other rain measurements)
** Current wind speed in m/s (hover to see current wind gust speed)